| time (UTC) | temp F | wind direction | speed knots | gust knots | rain 1hr in | rain 24hr in | rain mn in | humidity % | barometer mb |
| 20260510011544 | 81 | 123 | 4.3 | 9.6 | 0.00 | 0.00 | 0.00 | 51 | 1008.3 |
| 20260510010042 | 82 | 153 | 4.3 | 10.4 | 0.00 | 0.00 | 0.00 | 48 | 1008.3 |
| 20260510004540 | 84 | 118 | 4.3 | 10.4 | 0.00 | 0.00 | 0.00 | 44 | 1008.3 |
| 20260510003045 | 86 | 123 | 3.5 | 8.7 | 0.00 | 0.00 | 0.00 | 40 | 1008.2 |
| 20260510001545 | 87 | 153 | 6.1 | 9.6 | 0.00 | 0.00 | 0.00 | 38 | 1008.1 |
| 20260510000100 | 87 | 149 | 3.5 | 9.6 | 0.00 | 0.00 | 0.00 | 37 | 1008.2 |
| 20260509234554 | 88 | 156 | 4.3 | 9.6 | 0.00 | 0.00 | 0.00 | 36 | 1008.3 |
| 20260509233045 | 88 | 119 | 5.2 | 10.4 | 0.00 | 0.00 | 0.00 | 36 | 1008.3 |
| 20260509231545 | 89 | 149 | 3.5 | 10.4 | 0.00 | 0.00 | 0.00 | 35 | 1008.5 |
| 20260509230046 | 89 | 189 | 5.2 | 11.3 | 0.00 | 0.00 | 0.00 | 34 | 1008.5 |
| 20260509224544 | 89 | 148 | 3.5 | 13.0 | 0.00 | 0.00 | 0.00 | 36 | 1008.6 |
| 20260509223101 | 89 | 132 | 4.3 | 8.7 | 0.00 | 0.00 | 0.00 | 34 | 1008.5 |
| 20260509221545 | 89 | 188 | 3.5 | 11.3 | 0.00 | 0.00 | 0.00 | 34 | 1008.5 |
| 20260509220042 | 89 | 150 | 2.6 | 13.0 | 0.00 | 0.00 | 0.00 | 35 | 1008.6 |
| 20260509214541 | 89 | 153 | 6.1 | 9.6 | 0.00 | 0.00 | 0.00 | 35 | 1008.6 |
| 20260509213046 | 89 | 116 | 5.2 | 10.4 | 0.00 | 0.00 | 0.00 | 37 | 1008.8 |
| 20260509211542 | 89 | 197 | 5.2 | 9.6 | 0.00 | 0.00 | 0.00 | 38 | 1009.1 |
| 20260509210049 | 89 | 210 | 6.1 | 11.3 | 0.00 | 0.00 | 0.00 | 37 | 1009.2 |
| 20260509204549 | 88 | 142 | 6.1 | 10.4 | 0.00 | 0.00 | 0.00 | 39 | 1009.5 |
| 20260509203039 | 88 | 146 | 4.3 | 14.8 | 0.00 | 0.00 | 0.00 | 40 | 1009.7 |
| 20260509201548 | 88 | 126 | 4.3 | 8.7 | 0.00 | 0.00 | 0.00 | 42 | 1010.0 |
| 20260509200059 | 88 | 145 | 4.3 | 11.3 | 0.00 | 0.00 | 0.00 | 41 | 1010.1 |
| 20260509194544 | 87 | 179 | 4.3 | 9.6 | 0.00 | 0.00 | 0.00 | 41 | 1010.3 |
| 20260509193043 | 87 | 153 | 4.3 | 10.4 | 0.00 | 0.00 | 0.00 | 45 | 1010.5 |
| 20260509191542 | 87 | 124 | 4.3 | 9.6 | 0.00 | 0.00 | 0.00 | 40 | 1010.7 |
| 20260509190041 | 86 | 161 | 5.2 | 11.3 | 0.00 | 0.00 | 0.00 | 42 | 1010.8 |
| 20260509184556 | 86 | 197 | 4.3 | 11.3 | 0.00 | 0.00 | 0.00 | 41 | 1011.0 |
| 20260509183043 | 86 | 152 | 2.6 | 7.8 | 0.00 | 0.00 | 0.00 | 43 | 1010.9 |
| 20260509181547 | 85 | 198 | 3.5 | 8.7 | 0.00 | 0.00 | 0.00 | 45 | 1011.2 |
| 20260509180039 | 85 | 192 | 3.5 | 7.0 | 0.00 | 0.00 | 0.00 | 49 | 1011.5 |
| 20260509174543 | 84 | 177 | 4.3 | 7.8 | 0.00 | 0.00 | 0.00 | 50 | 1011.7 |
| 20260509173052 | 84 | 148 | 3.5 | 7.8 | 0.00 | 0.00 | 0.00 | 53 | 1012.0 |
| 20260509171543 | 83 | 199 | 0.9 | 9.6 | 0.00 | 0.00 | 0.00 | 51 | 1012.1 |
| 20260509170042 | 82 | 175 | 0.9 | 7.8 | 0.00 | 0.00 | 0.00 | 53 | 1012.1 |
| 20260509164540 | 82 | 205 | 4.3 | 9.6 | 0.00 | 0.00 | 0.00 | 56 | 1012.2 |
| 20260509163044 | 81 | 203 | 1.7 | 8.7 | 0.00 | 0.00 | 0.00 | 59 | 1012.2 |
| 20260509161544 | 80 | 185 | 1.7 | 9.6 | 0.00 | 0.00 | 0.00 | 59 | 1012.2 |
| 20260509160046 | 79 | 187 | 2.6 | 7.8 | 0.00 | 0.00 | 0.00 | 63 | 1012.3 |
| 20260509154543 | 79 | 232 | 4.3 | 7.8 | 0.00 | 0.00 | 0.00 | 64 | 1012.3 |
| 20260509153045 | 78 | 165 | 2.6 | 7.8 | 0.00 | 0.00 | 0.00 | 66 | 1012.3 |
| 20260509151544 | 77 | 263 | 2.6 | 9.6 | 0.00 | 0.00 | 0.00 | 68 | 1012.2 |
| 20260509150046 | 76 | 298 | 2.6 | 11.3 | 0.00 | 0.00 | 0.00 | 71 | 1012.1 |
| 20260509144601 | 74 | 213 | 6.1 | 12.2 | 0.00 | 0.00 | 0.00 | 73 | 1012.1 |
| 20260509143044 | 73 | 183 | 6.1 | 11.3 | 0.00 | 0.00 | 0.00 | 76 | 1012.1 |
| 20260509141542 | 71 | 257 | 6.1 | 12.2 | 0.00 | 0.00 | 0.00 | 79 | 1012.3 |
| 20260509140040 | 69 | 211 | 6.1 | 13.0 | 0.00 | 0.00 | 0.00 | 83 | 1012.2 |
| 20260509134601 | 68 | 217 | 4.3 | 9.6 | 0.00 | 0.00 | 0.00 | 84 | 1012.2 |
| 20260509133047 | 68 | 245 | 6.1 | 13.0 | 0.00 | 0.00 | 0.00 | 84 | 1012.0 |
| 20260509131542 | 67 | 236 | 3.5 | 12.2 | 0.00 | 0.00 | 0.00 | 86 | 1012.0 |
| 20260509130054 | 66 | 212 | 6.1 | 10.4 | 0.00 | 0.00 | 0.00 | 88 | 1011.8 |
| 20260509124543 | 65 | 221 | 6.1 | 12.2 | 0.00 | 0.00 | 0.00 | 89 | 1011.6 |
| 20260509123048 | 64 | 178 | 6.1 | 10.4 | 0.00 | 0.00 | 0.00 | 89 | 1011.4 |
| 20260509121601 | 63 | 213 | 6.1 | 12.2 | 0.00 | 0.00 | 0.00 | 89 | 1011.4 |
| 20260509120043 | 63 | 202 | 7.0 | 11.3 | 0.00 | 0.00 | 0.00 | 88 | 1011.2 |
| 20260509114542 | 63 | 224 | 7.0 | 12.2 | 0.00 | 0.00 | 0.00 | 87 | 1011.0 |
| 20260509113040 | 62 | 199 | 6.1 | 11.3 | 0.00 | 0.00 | 0.00 | 86 | 1010.7 |
| 20260509111551 | 62 | 200 | 6.1 | 9.6 | 0.00 | 0.00 | 0.00 | 86 | 1010.5 |
| 20260509110046 | 62 | 207 | 5.2 | 12.2 | 0.00 | 0.00 | 0.00 | 86 | 1010.5 |
| 20260509104547 | 62 | 227 | 4.3 | 10.4 | 0.00 | 0.00 | 0.00 | 86 | 1010.5 |
| 20260509103054 | 62 | 218 | 5.2 | 9.6 | 0.00 | 0.00 | 0.00 | 87 | 1010.9 |
| 20260509101617 | 62 | 188 | 3.5 | 9.6 | 0.00 | 0.00 | 0.00 | 86 | 1010.9 |
| 20260509100044 | 62 | 184 | 4.3 | 9.6 | 0.00 | 0.00 | 0.00 | 85 | 1011.0 |
| 20260509094541 | 63 | 205 | 4.3 | 9.6 | 0.00 | 0.00 | 0.00 | 82 | 1011.1 |
| 20260509093043 | 63 | 170 | 5.2 | 10.4 | 0.00 | 0.00 | 0.00 | 80 | 1011.1 |
| 20260509091544 | 64 | 194 | 4.3 | 8.7 | 0.00 | 0.00 | 0.00 | 77 | 1011.0 |
| 20260509090043 | 64 | 210 | 2.6 | 7.8 | 0.00 | 0.00 | 0.00 | 76 | 1011.1 |
| 20260509084544 | 64 | 158 | 3.5 | 7.8 | 0.00 | 0.00 | 0.00 | 76 | 1011.0 |
| 20260509083044 | 65 | 197 | 4.3 | 7.0 | 0.00 | 0.00 | 0.00 | 75 | 1011.2 |
| 20260509081545 | 65 | 118 | 3.5 | 10.4 | 0.00 | 0.00 | 0.00 | 75 | 1011.5 |
| 20260509080042 | 65 | 109 | 4.3 | 8.7 | 0.00 | 0.00 | 0.00 | 75 | 1011.8 |
| 20260509074546 | 65 | 107 | 1.7 | 5.2 | 0.00 | 0.00 | 0.00 | 75 | 1011.7 |
| 20260509073054 | 65 | 68 | 3.5 | 10.4 | 0.00 | 0.00 | 0.00 | 75 | 1012.1 |
| 20260509071553 | 66 | 86 | 3.5 | 12.2 | 0.00 | 0.00 | 0.00 | 78 | 1012.7 |
| 20260509070047 | 66 | 66 | 4.3 | 16.5 | 0.00 | 0.00 | 0.00 | 81 | 1012.9 |
| 20260509064557 | 67 | 29 | 6.1 | 14.8 | 0.00 | 0.00 | 0.00 | 90 | 1013.1 |
| 20260509063045 | 67 | 34 | 2.6 | 9.6 | 0.00 | 0.00 | 0.00 | 91 | 1012.7 |
| 20260509061540 | 66 | 360 | 1.7 | 6.1 | 0.00 | 0.00 | 0.00 | 91 | 1012.1 |
| 20260509060040 | 66 | 159 | 1.7 | 7.0 | 0.00 | 0.00 | 0.00 | 90 | 1010.9 |
| 20260509054545 | 67 | 194 | 2.6 | 7.8 | 0.00 | 0.00 | 0.00 | 90 | 1010.3 |
| 20260509053048 | 67 | 171 | 3.5 | 9.6 | 0.00 | 0.00 | 0.00 | 90 | 1010.1 |
| 20260509051542 | 67 | 175 | 5.2 | 12.2 | 0.00 | 0.00 | 0.00 | 89 | 1010.1 |
| 20260509050041 | 67 | 146 | 7.0 | 14.8 | 0.00 | 0.00 | 0.00 | 89 | 1010.1 |
| 20260509044540 | 68 | 141 | 6.1 | 13.0 | 0.00 | 0.00 | 0.00 | 88 | 1010.3 |
| 20260509043048 | 68 | 165 | 5.2 | 12.2 | 0.00 | 0.00 | 0.00 | 87 | 1010.2 |
| 20260509041610 | 69 | 153 | 5.2 | 13.0 | 0.00 | 0.00 | 0.00 | 86 | 1010.0 |
| 20260509040045 | 69 | 175 | 6.1 | 14.8 | 0.00 | 0.00 | 0.00 | 85 | 1010.0 |
| 20260509034543 | 69 | 143 | 6.1 | 13.0 | 0.00 | 0.00 | 0.00 | 85 | 1009.8 |
| 20260509033047 | 69 | 179 | 6.1 | 13.0 | 0.00 | 0.00 | 0.00 | 84 | 1009.5 |
| 20260509031552 | 70 | 148 | 5.2 | 13.0 | 0.00 | 0.00 | 0.00 | 83 | 1009.5 |
| 20260509030046 | 70 | 194 | 6.1 | 11.3 | 0.00 | 0.00 | 0.00 | 82 | 1009.3 |
| 20260509024543 | 70 | 167 | 3.5 | 10.4 | 0.00 | 0.00 | 0.00 | 81 | 1009.2 |
| 20260509023100 | 71 | 155 | 3.5 | 11.3 | 0.00 | 0.00 | 0.00 | 79 | 1009.3 |
| 20260509021542 | 72 | 175 | 3.5 | 8.7 | 0.00 | 0.00 | 0.00 | 77 | 1009.2 |
| 20260509020054 | 72 | 173 | 2.6 | 6.1 | 0.00 | 0.00 | 0.00 | 75 | 1009.1 |
| 20260509014545 | 73 | 153 | 1.7 | 7.0 | 0.00 | 0.00 | 0.00 | 74 | 1009.0 |
| 20260509013045 | 74 | 153 | 2.6 | 7.0 | 0.00 | 0.00 | 0.00 | 73 | 1008.8 |